Weather History for Fairbanks, AK

Change the Weather History Date:

Wednesday, February 27, 2013

  Actual Average Record
Temperature  
Mean Temperature 7 °F 3 °F  
Max Temperature 23 °F 17 °F 45 °F (1928)
Min Temperature -9 °F -10 °F -51 °F (1932)
Degree Days  
Heating Degree Days 58 62  
Month to date heating degree days 1806 1797  
Since 1 July heating degree days 10924 10329  
Cooling Degree Days 0 0  
Month to date cooling degree days 0 0  
Year to date cooling degree days 0 0  
Moisture  
Dew Point -1 °F    
Average Humidity 74    
Maximum Humidity 88    
Minimum Humidity 46    
Precipitation  
Precipitation 0.00 in 0.01 in 0.20 in (1997)
Month to date precipitation 0.48 0.41  
Year to date precipitation 1.27 0.99  
Snow  
Snow 0.00 in 0.20 in 8.60 in (1938)
Month to date snowfall 10.7 7.9  
Since 1 July snowfall 50.5 56.1  
Snow Depth 22.00 in    
Sea Level Pressure  
Sea Level Pressure 29.42 in    
Wind  
Wind Speed 5 mph (NNE)    
Max Wind Speed 9 mph    
Max Gust Speed -    
Visibility 10 miles    
Events      
T = Trace of Precipitation, MM = Missing Value Source: NWS Daily Summary

Daily Weather History Graph

Daily Weather History Graph

Search for Another Location

Airport:

Trip Planner

Search our weather history database for the weather conditions in past years. The results will help you decide how hot, cold, wet, or windy it might be!

Date:

Astronomy

Feb. 27, 2013 Rise Set
Actual Time 8:06 AM AKST 6:03 PM AKST
Civil Twilight 7:16 AM AKST 6:53 PM AKST
Nautical Twilight 6:20 AM AKST 7:49 PM AKST
Astronomical Twilight 5:22 AM AKST 8:47 PM AKST
Moon 9:52 PM AKST (2/27) 7:44 AM AKST (2/27)
Length of Visible Light 11h 36m
Length of Day
9h 57m
Waning Gibbous, 95% of the Moon is Illuminated
Feb 27
Waning Gibbous
Mar 4
Last Quarter
Mar 11
New
Mar 19
First Quarter
Mar 27
Full

Hourly Weather History & Observations

Time (AKST) Temp. Windchill Dew Point Humidity Pressure Visibility Wind Dir Wind Speed Gust Speed Precip Events Conditions
12:53 AM -0.9 °F -15.3 °F -6.0 °F 79% 29.51 in 10.0 mi NNE 8.1 mph - N/A   Partly Cloudy
1:53 AM -0.9 °F -12.7 °F -6.0 °F 79% 29.50 in 10.0 mi NNE 5.8 mph - N/A   Partly Cloudy
3:53 AM -5.1 °F - -9.9 °F 80% 29.48 in 10.0 mi Calm Calm - N/A   Partly Cloudy
4:53 AM -8.0 °F -19.2 °F -13.0 °F 79% 29.47 in 10.0 mi NE 4.6 mph - N/A   Partly Cloudy
5:53 AM -8.0 °F -16.9 °F -11.9 °F 83% 29.44 in 10.0 mi NNE 3.5 mph - N/A   Partly Cloudy
6:53 AM -7.1 °F - -13.0 °F 75% 29.44 in 10.0 mi Calm Calm - N/A   Partly Cloudy
7:53 AM -8.0 °F -16.9 °F -14.1 °F 75% 29.43 in 10.0 mi North 3.5 mph - N/A   Partly Cloudy
8:53 AM -5.1 °F -15.8 °F -11.0 °F 76% 29.42 in 10.0 mi NNE 4.6 mph - N/A   Partly Cloudy
9:53 AM -2.0 °F -15.4 °F -8.0 °F 76% 29.42 in 10.0 mi NE 6.9 mph - N/A   Partly Cloudy
10:53 AM 5.0 °F - -0.0 °F 80% 29.42 in 10.0 mi Calm Calm - N/A   Partly Cloudy
11:53 AM 10.9 °F - 5.0 °F 77% 29.42 in 10.0 mi Calm Calm - N/A   Partly Cloudy
12:53 PM 17.1 °F 7.6 °F 7.0 °F 65% 29.40 in 10.0 mi NE 6.9 mph - N/A   Partly Cloudy
1:53 PM 21.0 °F 10.6 °F 10.0 °F 63% 29.40 in 10.0 mi NNE 9.2 mph - N/A   Partly Cloudy
2:53 PM 21.0 °F 11.4 °F 9.0 °F 60% 29.38 in 10.0 mi NNE 8.1 mph - N/A   Partly Cloudy
3:53 PM 19.9 °F 10.1 °F 8.1 °F 60% 29.36 in 10.0 mi NNE 8.1 mph - N/A   Partly Cloudy
4:53 PM 21.0 °F 14.6 °F 9.0 °F 60% 29.36 in 10.0 mi NE 4.6 mph - N/A   Partly Cloudy
5:53 PM 16.0 °F 10.4 °F 7.0 °F 68% 29.36 in 10.0 mi NNE 3.5 mph - N/A   Partly Cloudy
6:53 PM 9.0 °F 2.4 °F 5.0 °F 84% 29.37 in 10.0 mi NW 3.5 mph - N/A   Partly Cloudy
7:53 PM 10.0 °F 3.6 °F 6.1 °F 84% 29.38 in 10.0 mi North 3.5 mph - N/A   Partly Cloudy
8:53 PM 3.9 °F - 1.0 °F 88% 29.38 in 10.0 mi Calm Calm - N/A   Partly Cloudy
9:53 PM 3.0 °F -4.4 °F -0.0 °F 87% 29.39 in 10.0 mi NNW 3.5 mph - N/A   Partly Cloudy
10:53 PM 6.1 °F - 1.0 °F 80% 29.41 in 10.0 mi Calm Calm - N/A   Clear
11:53 PM 1.9 °F -5.6 °F -0.9 °F 88% 29.42 in 10.0 mi NNE 3.5 mph - N/A   Clear